Dauntless Aviation
Greetings, Guest! To participate, [sign up for a free account] or [log in]
Airports North America United States Colorado
98CO

NCMC HELIPORT

GREELEY, CO, USA

Airport Info

Location

Latitude / Longitude: 40°24'53"N / 104°42'28"W
  40°24.9'N / 104°42.4667'W
  40.4150 / -104.7078
Elevation: 4882 ft. (estimated)
Variation: 12E (1985)
From city: 00 miles N of GREELEY, CO

Operations

Facility use: Private
Sectional chart: DENVER
Control tower: no
Boundary ARTCC: DENVER
FSS: DENVER [1-800-WX-BRIEF]
Segmented circle: no

Communications

Nearby radio navigation aids

VOR radial/distance VOR name Freq Var
GLL 233oT/8.9 GILL VORTAC 114.20 13E
DVV 353oT/31.5 MILE HIGH VORTAC 114.70 11E
BJC 33oT/36.1 JEFFCO VOR/DME 115.40 11E
DEN 357oT/36.2 DENVER VOR/DME 117.90 11E
 
NDB name Hdg/Dist Freq Var ID

Services

Runway Information

Helipad H1

Dimensions: 40 x 40 ft.
Surface: PORTLAND CEMENT CONCRETE,NO SPECIAL SURFACE TREATMENT
 

Additional Remarks

Instrument Procedures

No published instrument procedures available
Topographic chart at:
Satellite photo at:
Airport distance calculator
From:
Weather Reports

METAR

KGXY
4.2nm NE
KGXY 291815Z AUTO 35011KT 9SM FEW120 26/08 A3008 RMK AO1
KFNL
14.3nm W
KFNL 291815Z AUTO 02013KT 10SM CLR 24/08 A3009 RMK AO1
KLMO
25.8nm SW
KLMO 291814Z AUTO 03003KT 10SM BKN100 27/09 A3011 RMK AO2 T02680092
KEIK
28.6nm S
KEIK 291815Z AUTO 03009G15KT 10SM SCT095 SCT110 25/06 A3010 RMK AO2 T02510064
KBDU
33.3nm SW
KBDU 291815Z AUTO 06007KT 10SM SCT100 25/06 A3012 RMK AO2
KDEN
35.0nm SE
KDEN 291753Z 36013G19KT 10SM FEW070 FEW100 SCT140 25/09 A3012 RMK AO2 SLP126 T02500089 10256 20128 50001

TAF

KDEN
35.0nm SE
KDEN 291738Z 2918/3024 36012KT P6SM SCT070 SCT120 FM291900 02012KT P6SM VCSH SCT070 BKN120 TEMPO 2920/2924 VRB20G30KT -TSRA BKN060CB FM300100 08009KT P6SM SCT080 BKN120 FM300300 12008KT P6SM FEW080 SCT120 FM300500 20010KT P6SM FEW110 SCT200 FM301700 22006KT P6SM FEW090 SCT150 BKN200
KBJC
35.3nm S
KBJC 291738Z 2918/3018 08007KT P6SM VCSH SCT070 BKN120 TEMPO 2919/2923 VRB15G25KT -TSRA BKN060CB FM292300 03010KT P6SM SCT070 BKN110 TEMPO 2923/3001 -SHRA BKN070 FM300100 08009KT P6SM SCT080 BKN120 FM300300 12008KT P6SM FEW080 SCT120 FM300500 25010KT P6SM FEW110 SCT200 FM301500 VRB05KT P6SM FEW090 SCT150 BKN200
Safelog

 

Dauntless Aviation

© 2007-2014 Dauntless Aviation, all rights reserved
Information provided via PilotNav comes from a variety of official and unofficial data sources. As errors are possible, do not use PilotNav for primary flight planning purposes. Verify any information that you receive via PilotNav with current and canonical charts and other official documents. The material in this database is subject to database copyrights held by Dauntless Aviation and may not be copied without the express permission of Dauntless Aviation - licenses for use of part of all of this data are available for purchase; enquire via the Dauntless Aviation helpdesk. A number of mechanisms and markers exist in the database to protect against and identify infringement / copyright. Automated queries against this website are stictly prohibited, and all activity is logged and analyzed.